Guram Shengelia

Scout - Dinamo Tbilisi
4 Dez 2028
Montag
Verarbeitung

Persönlichkeit

Anpassungsfähigkeit (1) Ehrgeiz (2) Kontroverse (12) Loyalität (2) Druck (18) Professionalität (14) Fairness (18) Temperament (3)

Profil

Trainerstil Demokratisch
Lizenz Nationale B
Entschlossenheit 4
Menschenführung 12
Motivation 4
Disziplin 11
Arbeitszufriedenheit
100%
Ermüdung
0%
Rolle Scout
Gehalt 24.4K p/W
Vertrag 14.03.2030

Leistung

Verhalten Gut
Trainingseffektivität
35%
Spielerentwicklung
40%
Verletzungsprävention
25%
Taktische Umsetzung
20%

Letzte Ereignisse

Nahm an einer Scouting-Besprechung teil 7T her
Empfahl ein Transferziel 7T her
Nahm an einer Scouting-Besprechung teil 14T her
Empfahl ein Transferziel 14T her
Nahm an einer Scouting-Besprechung teil 21T her
Empfahl ein Transferziel 21T her
Nahm an einer Scouting-Besprechung teil 28T her
Empfahl ein Transferziel 28T her

Aktuell beobachtet

88
Spieler Verein Status Fähigkeit Vertrauen Beobachtet Zuletzt beobachtet Letzte Stimme
Will Mannion Charlton Athletic Aktiv 112 / 119 40% 4 30.05.2028 -
Charlie Hughes Chesterfield Aktiv 122 / 140 40% 2 30.05.2028 -
Myles Roberts Cambridge United Aktiv 121 / 107 40% 1 30.05.2028 -
Sydie Peck Swindon Town Aktiv 138 / 136 40% 1 30.05.2028 -
Joshua Quarshie Exeter City Aktiv 134 / 120 40% 1 28.05.2028 -
Antoine Hainaut Venezia Aktiv 143 / 134 40% 1 28.05.2028 -
Alexei Rojas Fedorushchenko Barrow AFC Aktiv 119 / 128 40% 2 26.05.2028 -
Luca Connell Barnsley Aktiv 115 / 128 40% 2 24.05.2028 -
Lewis Bate Stockport County Aktiv 135 / 142 40% 1 24.05.2028 -
Liam Thompson Mansfield Town Aktiv 112 / 139 40% 1 21.05.2028 -
Kyle John Port Vale Aktiv 111 / 110 40% 1 20.05.2028 -
Gaëtan Coucke Sampdoria Aktiv 118 / 127 40% 2 17.05.2028 -
Dylan Moody Cheltenham Town Aktiv 109 / 128 40% 1 17.05.2028 -
Nathan Bishop AFC Wimbledon Aktiv 126 / 123 40% 2 15.05.2028 -
Jordan Amissah Burton Albion Aktiv 102 / 108 40% 3 15.05.2028 -
Fran Vieites Walsall Aktiv 135 / 121 40% 1 14.05.2028 -
Josh Nichols Oldham Athletic Aktiv 117 / 136 40% 2 12.05.2028 -
George Evans Exeter City Aktiv 108 / 99 40% 2 11.05.2028 -
Michele Cerofolini Empoli Abgelehnt 148 / 125 40% 1 11.05.2028 -
Evgeny Latyshonok Nizhniy Novgorod Aktiv 136 / 116 40% 4 10.05.2028 -
Terry Taylor Charlton Athletic Aktiv 121 / 139 40% 1 08.05.2028 -
Nathan Moriah-Welsh Mansfield Town Aktiv 102 / 102 40% 1 08.05.2028 -
Conor Coventry Charlton Athletic Aktiv 113 / 113 40% 2 03.05.2028 -
Charlie Webster Burton Albion Aktiv 123 / 122 40% 2 03.05.2028 -
Rob Atkinson Bristol City Aktiv 121 / 122 40% 1 29.04.2028 -
Tristan Crama Wycombe Wanderers Aktiv 116 / 135 40% 1 26.04.2028 -
Jay McGrath Doncaster Rovers Aktiv 126 / 113 40% 1 26.04.2028 -
Andy Rinomhota Reading Aktiv 108 / 128 40% 1 25.04.2028 -
Chris Mepham West Bromwich Albion Aktiv 132 / 120 40% 1 25.04.2028 -
Ethan Erhahon Cheltenham Town Aktiv 105 / 109 40% 1 23.04.2028 -
Paik Seung-Ho Birmingham Aktiv 121 / 120 40% 3 21.04.2028 -
Daichi Kamada Luton Town Aktiv 148 / 137 40% 1 21.04.2028 -
Robert Cook Accrington Stanley Aktiv 120 / 104 40% 1 18.04.2028 -
Balázs Tóth Blackburn Rovers Aktiv 129 / 147 40% 1 18.04.2028 -
Alfie Whiteman Newport County Aktiv 115 / 118 40% 2 16.04.2028 -
Lukas Jensen Millwall Aktiv 135 / 112 40% 1 14.04.2028 -
Daniele Sommariva Gillingham Aktiv 115 / 120 40% 1 07.04.2028 -
Josh Keeley Luton Town Aktiv 139 / 140 40% 1 05.04.2028 -
Luke McGee Tranmere Rovers Aktiv 102 / 105 40% 2 04.04.2028 -
Reuell Walters Luton Town Aktiv 126 / 136 40% 1 04.04.2028 -
Francesco D'Alterio Ternana Aktiv 120 / 111 40% 1 03.04.2028 -
Jonathan Klinsmann Cesena Aktiv 126 / 123 40% 1 02.04.2028 -
Gonçalo Franco Swansea City Aktiv 122 / 143 40% 1 31.03.2028 -
Vladan Kovačević Norwich City Aktiv 130 / 135 40% 1 31.03.2028 -
Ryan Wintle Milton Keynes Dons Aktiv 117 / 129 40% 1 28.03.2028 -
Ben Cabango Gillingham Aktiv 132 / 114 40% 1 28.03.2028 -
Jack Taylor Doncaster Rovers Aktiv 126 / 129 40% 1 27.03.2028 -
Filip Marschall Stevenage Aktiv 114 / 107 40% 2 26.03.2028 -
Odel Offiah Shrewsbury Town Aktiv 119 / 109 40% 1 25.03.2028 -
Eli King Gillingham Aktiv 125 / 101 40% 1 22.03.2028 -
Daniel Phillips Bromley Aktiv 130 / 120 40% 1 18.03.2028 -
Rostislav Soldatenko Torpedo Moscow Aktiv 95 / 123 40% 1 17.03.2028 -
Joe Walsh Queens Park Rangers Aktiv 120 / 111 40% 1 09.03.2028 -
Bogdan Ovsyannikov Orenburg Aktiv 133 / 103 40% 1 02.03.2028 -
Jay Matete Milton Keynes Dons Aktiv 118 / 123 40% 1 01.03.2028 -
Ethan Pye Stockport County Aktiv 131 / 110 40% 1 01.03.2028 -
Justin Haak LA Galaxy Aktiv 127 / 122 40% 1 27.02.2028 -
Ilja Agapov Ufa Aktiv 114 / 112 40% 1 27.02.2028 -
Rustam Yatimov Rostov Aktiv 108 / 106 40% 1 25.02.2028 -
Nodar Lominadze Torpedo Kutaisi Aktiv 119 / 111 40% 1 21.02.2028 -
Igor Obukhov Fakel Aktiv 113 / 121 40% 1 15.02.2028 -
Riccardo Gagno Vicenza Aktiv 118 / 137 40% 1 15.02.2028 -
Darko Todorović Fakel Aktiv 113 / 115 40% 1 11.02.2028 -
Corey Addai Barnsley Aktiv 130 / 130 40% 1 10.02.2028 -
Paulo Vitor Dinamo Batumi Aktiv 103 / 121 40% 1 09.02.2028 -
Greg Docherty Barrow AFC Aktiv 131 / 101 40% 1 08.02.2028 -
Anton Mitryushkin Lokomotiv Moscow Aktiv 128 / 137 40% 2 07.02.2028 -
Roberto Ramírez Godoy Cruz Aktiv 123 / 120 40% 1 31.01.2028 -
Joe Lumley Sheffield Wednesday Aktiv 121 / 117 40% 1 31.01.2028 -
Jonathan Farías Torpedo Kutaisi Aktiv 112 / 110 58% 1 24.01.2028 Befürworten
Gustavo Del Prete San Lorenzo Aktiv 116 / 108 40% 1 13.01.2028 -
Dato Mchedlidze Tskhinvali Aktiv 95 / 115 58% 1 01.01.2028 -
Nicolás Laméndola Atlético Tucumán Aktiv 121 / 115 40% 1 31.12.2027 -
Daniel Barrea Godoy Cruz Aktiv 126 / 113 40% 1 06.12.2027 -
Victor Hernandez Santa Fe Aktiv 111 / 131 40% 1 14.08.2027 -
Julián Bragado Morón Aktiv 74 / 81 40% 1 13.08.2027 -
João Abreu Porto Aktiv 81 / 123 40% 1 04.08.2027 -
Chinaza Joseph Foullah Edifice Aktiv 54 / 50 40% 1 04.08.2027 -
Lander Astiazarán Real Sociedad Aktiv 94 / 129 40% 2 31.07.2027 -
Fazliddin Zuhriddinov Renaissance Aktiv 73 / 88 40% 1 26.07.2027 -
Martim Cunha Porto Aktiv 110 / 102 40% 1 23.07.2027 -
Corey Baird Portland Timbers Aktiv 125 / 119 40% 1 22.07.2027 -
Fabián Muñoz Dinamo Batumi Aktiv 101 / 90 55% 1 21.06.2027 -
Ibrahim Alhassan Saburtalo Aktiv 114 / 101 55% 1 01.01.2027 -
Amine Boukamir Charleroi Aktiv 84 / 112 40% 1 25.12.2026 -
Tomás Aranda Boca Juniors Aktiv 113 / 115 40% 1 21.12.2026 -
Murat Celik Tskhinvali Aktiv 119 / 122 55% 1 31.08.2026 -
Manu Lama Granada Aktiv 111 / 105 40% 1 01.08.2026 -